Home > Time Zones > World Clock > Weather > U.S.A. > Yuma > Past weeks

Flag for U.S.A. Weather past 2 weeks in Yuma, Arizona, U.S.A.

Now
71 °F

Clear.


Feels Like: 75 °F
Forecast: 59 / 91 °F
Wind: 5 mph from South

Location: Yuma Marine Corps Air Station

Current Time: Apr 17, 2015 at 10:35:42 PM

Latest Report: Apr 17, 2015 at 9:57 PM


Visibility: 10 mi

Pressure: 29.94 "Hg

Humidity: 22%

Dew point: 30 °F

Location of YumaLocation

Historic Weather in Yuma — Graph

°F

Yuma temperature yesterday

Maximum temperature yesterday: 81 °F (at 3:57 PM)
Minimum temperature yesterday: 57 °F (at 5:57 AM)
Average temperature yesterday: 69 °F

Past Weeks' High & Low Weather Summary

 TemperatureHumidityPressure
High94 °F (Apr 14, 2:57 PM)76% (Apr 12, 5:57 AM)30.06 "Hg (Apr 12, 5:57 AM)
Low53 °F (Apr 9, 5:57 AM)4% (Apr 4, 11:57 AM)29.69 "Hg (Apr 5, 6:57 PM)
Average73 °F25%29.90 "Hg
* Reported Apr 2 8:57 PM — Apr 17 8:57 PM, Yuma, Weather by CustomWeather, © 2015

Note: Actual official high and low records may vary slightly from our data, if they occured in-between our weather recording intervals... More about our weather records

Advertising

Yuma weather history for previous 24 hours

 ConditionsComfort  
Time TempWeatherWind HumidityBarometerVisibility
8:57 PM
Fri, Apr 17
76 °FClear.No wind16%29.93 "Hg10 mi
7:57 PM77 °FClear.6 mph16%29.90 "Hg10 mi
6:57 PM82 °FSunny.7 mph13%29.89 "Hg10 mi
5:57 PM85 °FSunny.8 mph10%29.88 "Hg10 mi
4:57 PM86 °FSunny.12 mph9%29.89 "Hg10 mi
3:57 PM86 °FSunny.13 mph9%29.90 "Hg10 mi
2:57 PM86 °FSunny.10 mph7%29.93 "Hg10 mi
1:57 PM85 °FSunny.6 mph8%29.96 "Hg10 mi
12:57 PM83 °FSunny.5 mph9%29.99 "Hg10 mi
11:57 AM82 °FSunny.6 mph10%30.01 "Hg10 mi
10:57 AM79 °FSunny.6 mph11%30.03 "Hg10 mi
9:57 AM76 °FSunny.No wind13%30.03 "Hg10 mi
8:57 AM70 °FPassing clouds.No wind18%30.03 "Hg10 mi
7:57 AM65 °FSunny.3 mph23%30.01 "Hg10 mi
6:57 AM57 °FSunny.No wind39%30.00 "Hg10 mi
5:57 AM57 °FClear.3 mph34%29.98 "Hg10 mi
4:57 AM57 °FClear.5 mph36%29.98 "Hg10 mi
3:57 AM55 °FClear.No wind37%29.98 "Hg10 mi
2:57 AM57 °FClear.5 mph34%29.99 "Hg10 mi
1:57 AM59 °FClear.5 mph31%30.00 "Hg10 mi
12:57 AM61 °FClear.3 mph30%30.01 "Hg10 mi
11:57 PM
Thu, Apr 16
64 °FClear.3 mph25%30.02 "Hg10 mi
10:57 PM65 °FClear.7 mph25%30.02 "Hg10 mi
Weather by CustomWeather, © 2015

See weather overviewHow to use our weather pages